This is the latest recevied weather packets stored in our database for station/object WI0K. If no packets are shown the sender has not sent any weather packets the latest 10 day(s).
| Time | Temp. | Humidity | Pressure | Rain* | Wind** | Luminosity | Snow |
|---|---|---|---|---|---|---|---|
| 1777738399 | 14.44° C | 27% | 1022.2 hPa | 0 mm | - | 785 W/m² | - |
| 1777738157 | 14.44° C | 27% | 1022.2 hPa | 0 mm | - | 785 W/m² | - |
| 1777737856 | 14.44° C | 28% | 1022.2 hPa | 0 mm | - | 773 W/m² | - |
| 1777737556 | 14.44° C | 29% | 1022.2 hPa | 0 mm | - | 757 W/m² | - |
| 1777737255 | 13.89° C | 30% | 1022.2 hPa | 0 mm | - | 748 W/m² | - |
| 1777736954 | 13.89° C | 28% | 1022.2 hPa | 0 mm | - | 733 W/m² | - |
| 1777736654 | 13.89° C | 29% | 1022.3 hPa | 0 mm | - | 716 W/m² | - |
| 1777736353 | 13.33° C | 30% | 1022.3 hPa | 0 mm | - | 695 W/m² | - |
| 1777736052 | 13.33° C | 30% | 1022.4 hPa | 0 mm | - | 683 W/m² | - |
| 1777735752 | 13.33° C | 32% | 1022.4 hPa | 0 mm | - | 666 W/m² | - |
| 1777735451 | 12.78° C | 32% | 1022.4 hPa | 0 mm | - | 643 W/m² | - |
| 1777735151 | 12.78° C | 31% | 1022.5 hPa | 0 mm | - | 628 W/m² | - |
| 1777734850 | 12.22° C | 33% | 1022.5 hPa | 0 mm | - | 615 W/m² | - |
| 1777734549 | 12.22° C | 35% | 1022.5 hPa | 0 mm | - | 596 W/m² | - |
| 1777734248 | 12.22° C | 33% | 1022.5 hPa | 0 mm | - | 579 W/m² | - |
| 1777734197 | 11.67° C | 36% | 1022.5 hPa | 0 mm | - | 554 W/m² | - |
| 1777733947 | 11.67° C | 36% | 1022.5 hPa | 0 mm | - | 554 W/m² | - |
| 1777733647 | 11.11° C | 36% | 1022.7 hPa | 0 mm | - | 517 W/m² | - |
| 1777733596 | 11.11° C | 36% | 1022.7 hPa | 0 mm | - | 517 W/m² | - |
| 1777733346 | 11.11° C | 36% | 1022.7 hPa | 0 mm | - | 517 W/m² | - |
| 1777733045 | 10.56° C | 36% | 1022.7 hPa | 0 mm | - | 506 W/m² | - |
| 1777732745 | 10° C | 37% | 1022.7 hPa | 0 mm | - | 487 W/m² | - |
| 1777732690 | 10° C | 36% | 1022.5 hPa | 0 mm | - | 449 W/m² | - |
| 1777732444 | 10° C | 36% | 1022.5 hPa | 0 mm | - | 449 W/m² | - |
| 1777732143 | 10° C | 38% | 1022.5 hPa | 0 mm | - | 449 W/m² | - |
* Rain latest hour (hover to see other rain measurements)
** Current wind speed in m/s (hover to see current wind gust speed)